Platteville, WI

6:45 PM CDT on August 28, 2016 (GMT -0500)
Platteville Municipal

Weather History for KPVB - June, 2013

Change the Weather History Date:

Friday, June 14, 2013

  Actual Average (KDBQ) Record (KDBQ)
Temperature  
Mean Temperature 66 °F 68 °F  
Max Temperature 76 °F 78 °F 96 °F (1894)
Min Temperature 55 °F 58 °F 47 °F (1969)
Degree Days  
Heating Degree Days 0 1  
Month to date heating degree days 29  
Since 1 June heating degree days 29  
Since 1 July heating degree days 7075  
Cooling Degree Days 0 4  
Month to date cooling degree days 45  
Year to date cooling degree days 82  
Since 1 June cooling degree days 45  
Growing Degree Days 16 (Base 50)    
Moisture  
Dew Point 54 °F    
Average Humidity 63    
Maximum Humidity 91    
Minimum Humidity 41    
Precipitation  
Precipitation 0.00 in 0.15 in 3.66 in (1938)
Month to date precipitation 2.10  
Year to date precipitation 14.97  
Snow  
Snow 0.00 in 0.00 in - ()
Month to date snowfall 0.0  
Since 1 June snowfall 0.0  
Since 1 July snowfall 41.9  
Snow Depth -    
Sea Level Pressure  
Sea Level Pressure 30.08 in    
Wind  
Wind Speed 6 mph (ESE)    
Max Wind Speed 12 mph    
Max Gust Speed -    
Visibility 10 miles    
Events      
T = Trace of Precipitation, MM = Missing Value Source: NWS Daily Summary

Daily Weather History Graph

Daily Weather History Graph

Search for Another Location

Airport or City:

Trip Planner

Search our weather history database for the weather conditions in past years. The results will help you decide how hot, cold, wet, or windy it might be!

Date:

Astronomy

Jun. 14, 2013 Rise Set
Actual Time 5:23 AM CDT 8:41 PM CDT
Civil Twilight 4:48 AM CDT 9:16 PM CDT
Nautical Twilight 4:02 AM CDT 10:01 PM CDT
Astronomical Twilight 3:07 AM CDT 10:57 PM CDT
Moon 11:05 AM CDT (6/14) No Moon Set
Length of Visible Light 16h 28m
Length of Day
15h 18m
Waxing Crescent, 30% of the Moon is Illuminated
Jun 14
Waxing Crescent
Jun 16
First Quarter
Jun 23
Full
Jun 29
Last Quarter
Jul 8
New

Hourly Weather History & Observations

Time (CDT) Temp. Dew Point Humidity Pressure Visibility Wind Dir Wind Speed Gust Speed Precip Events Conditions
12:15 AM 66.0 °F 52.2 °F 61% 30.06 in 10.0 mi NE 6.9 mph - N/A   Clear
12:35 AM 65.5 °F 52.5 °F 63% 30.07 in 10.0 mi NE 4.6 mph - N/A   Clear
12:55 AM 64.8 °F 52.5 °F 64% 30.07 in 10.0 mi NE 5.8 mph - N/A   Clear
1:15 AM 64.0 °F 52.7 °F 67% 30.07 in 10.0 mi NE 5.8 mph - N/A   Clear
1:35 AM 63.1 °F 52.9 °F 69% 30.07 in 10.0 mi NE 6.9 mph - N/A   Clear
1:55 AM 63.1 °F 53.1 °F 70% 30.07 in 10.0 mi NE 8.1 mph - N/A   Clear
2:15 AM 62.4 °F 53.4 °F 72% 30.07 in 10.0 mi ENE 9.2 mph - N/A   Clear
2:35 AM 61.0 °F 53.8 °F 77% 30.08 in 10.0 mi East 10.4 mph - N/A   Clear
2:55 AM 59.5 °F 54.1 °F 82% 30.09 in 10.0 mi East 6.9 mph - N/A   Clear
3:15 AM 58.8 °F 54.5 °F 86% 30.09 in 10.0 mi East 6.9 mph - N/A   Clear
3:35 AM 58.1 °F 54.5 °F 88% 30.09 in 10.0 mi East 6.9 mph - N/A   Clear
3:55 AM 58.1 °F 54.1 °F 87% 30.10 in 10.0 mi ESE 5.8 mph - N/A   Clear
4:15 AM 57.9 °F 53.6 °F 86% 30.10 in 10.0 mi ESE 8.1 mph - N/A   Clear
4:35 AM 57.4 °F 53.4 °F 87% 30.11 in 10.0 mi ESE 5.8 mph - N/A   Clear
4:55 AM 56.7 °F 53.4 °F 89% 30.11 in 10.0 mi SE 3.5 mph - N/A   Clear
5:15 AM 56.3 °F 52.7 °F 88% 30.12 in 10.0 mi Calm Calm - N/A   Clear
5:35 AM 56.3 °F 52.7 °F 88% 30.12 in 10.0 mi SE 3.5 mph - N/A   Clear
5:55 AM 56.3 °F 52.7 °F 88% 30.13 in 10.0 mi Calm Calm - N/A   Clear
6:15 AM 55.8 °F 53.1 °F 91% 30.15 in 7.0 mi Calm Calm - N/A   Clear
6:35 AM 57.2 °F 54.1 °F 89% 30.16 in 10.0 mi Calm Calm - N/A   Clear
6:55 AM 58.6 °F 54.1 °F 85% 30.16 in 10.0 mi South 3.5 mph - N/A   Clear
7:15 AM 59.0 °F 53.6 °F 82% 30.16 in 10.0 mi Calm Calm - N/A   Clear
7:35 AM 59.4 °F 52.7 °F 79% 30.16 in 10.0 mi Calm Calm - N/A   Clear
7:55 AM 60.8 °F 52.7 °F 75% 30.16 in 10.0 mi East 4.6 mph - N/A   Clear
8:15 AM 61.9 °F 52.3 °F 71% 30.15 in 10.0 mi East 6.9 mph - N/A   Clear
8:35 AM 63.3 °F 51.8 °F 66% 30.15 in 10.0 mi East 8.1 mph - N/A   Clear
8:55 AM 63.0 °F 51.8 °F 67% 30.14 in 10.0 mi ESE 8.1 mph - N/A   Clear
9:15 AM 64.4 °F 52.3 °F 65% 30.13 in 10.0 mi East 10.4 mph - N/A   Clear
9:35 AM 65.8 °F 52.3 °F 62% 30.13 in 10.0 mi ESE 11.5 mph - N/A   Clear
9:55 AM 65.8 °F 52.7 °F 62% 30.13 in 10.0 mi ESE 10.4 mph - N/A   Clear
10:15 AM 67.3 °F 53.8 °F 62% 30.12 in 10.0 mi ESE 10.4 mph - N/A   Clear
10:35 AM 68.0 °F 53.6 °F 60% 30.12 in 10.0 mi East 9.2 mph - N/A   Clear
10:55 AM 68.7 °F 54.3 °F 60% 30.12 in 10.0 mi East 6.9 mph - N/A   Clear
11:15 AM 69.6 °F 54.3 °F 58% 30.14 in 10.0 mi SE 4.6 mph - N/A   Clear
11:35 AM 70.3 °F 54.0 °F 56% 30.14 in 10.0 mi ESE 6.9 mph - N/A   Clear
11:55 AM 70.7 °F 53.8 °F 55% 30.14 in 10.0 mi South 3.5 mph - N/A   Clear
12:15 PM 72.1 °F 53.8 °F 52% 30.13 in 10.0 mi South 5.8 mph - N/A   Clear
12:35 PM 72.5 °F 53.6 °F 51% 30.13 in 10.0 mi SE 8.1 mph - N/A   Clear
12:55 PM 72.9 °F 54.0 °F 51% 30.13 in 10.0 mi ESE 6.9 mph - N/A   Clear
1:15 PM 73.6 °F 54.1 °F 50% 30.12 in 10.0 mi SSE 6.9 mph - N/A   Clear
1:35 PM 74.3 °F 54.0 °F 49% 30.11 in 10.0 mi SSE 9.2 mph - N/A   Clear
1:55 PM 74.8 °F 51.8 °F 44% 30.10 in 10.0 mi SSE 10.4 mph - N/A   Clear
2:15 PM 75.4 °F 52.7 °F 45% 30.09 in 10.0 mi SE 5.8 mph - N/A   Clear
2:35 PM 75.2 °F 50.4 °F 42% 30.09 in 10.0 mi SE 8.1 mph - N/A   Clear
2:55 PM 75.0 °F 53.1 °F 46% 30.08 in 10.0 mi SE 9.2 mph - N/A   Clear
3:15 PM 75.7 °F 54.9 °F 48% 30.07 in 10.0 mi ESE 9.2 mph - N/A   Clear
3:35 PM 76.3 °F 52.7 °F 44% 30.05 in 10.0 mi SE 8.1 mph - N/A   Clear
3:55 PM 76.8 °F 53.6 °F 44% 30.04 in 10.0 mi SE 10.4 mph - N/A   Clear
4:15 PM 75.9 °F 52.0 °F 43% 30.04 in 10.0 mi SE 8.1 mph - N/A   Clear
4:35 PM 76.1 °F 50.9 °F 41% 30.04 in 10.0 mi SE 8.1 mph - N/A   Scattered Clouds
4:55 PM 75.4 °F 53.6 °F 47% 30.03 in 10.0 mi SE 9.2 mph - N/A   Scattered Clouds
5:15 PM 75.4 °F 52.7 °F 45% 30.03 in 10.0 mi SE 8.1 mph - N/A   Clear
5:35 PM 75.2 °F 51.8 °F 44% 30.02 in 10.0 mi SE 8.1 mph - N/A   Scattered Clouds
5:55 PM 74.8 °F 52.2 °F 45% 30.02 in 10.0 mi SSE 8.1 mph - N/A   Clear
6:15 PM 74.8 °F 53.2 °F 47% 30.02 in 10.0 mi South 8.1 mph - N/A   Clear
6:35 PM 74.3 °F 53.6 °F 48% 30.02 in 10.0 mi South 8.1 mph - N/A   Clear
6:55 PM 74.3 °F 54.0 °F 49% 30.03 in 10.0 mi South 9.2 mph - N/A   Clear
7:15 PM 73.6 °F 55.2 °F 53% 30.03 in 10.0 mi SSW 6.9 mph - N/A   Clear
7:35 PM 72.9 °F 55.0 °F 53% 30.03 in 10.0 mi South 4.6 mph - N/A   Clear
7:55 PM 72.5 °F 54.0 °F 52% 30.02 in 10.0 mi South 4.6 mph - N/A   Clear
8:15 PM 71.8 °F 54.3 °F 54% 30.01 in 10.0 mi SE 5.8 mph - N/A   Clear
8:35 PM 70.7 °F 54.7 °F 57% 30.01 in 10.0 mi SE 6.9 mph - N/A   Clear
8:55 PM 69.8 °F 55.4 °F 60% 29.99 in 10.0 mi East 8.1 mph - N/A   Clear
9:15 PM 69.3 °F 56.5 °F 64% 29.99 in 10.0 mi ESE 8.1 mph - N/A   Scattered Clouds
9:35 PM 69.3 °F 56.5 °F 64% 29.99 in 10.0 mi ESE 9.2 mph - N/A   Clear
9:55 PM 68.9 °F 55.9 °F 63% 29.99 in 10.0 mi ESE 8.1 mph - N/A   Clear
10:15 PM 68.9 °F 55.6 °F 62% 30.00 in 10.0 mi ESE 6.9 mph - N/A   Clear
10:35 PM 68.2 °F 55.8 °F 64% 30.01 in 10.0 mi ESE 5.8 mph - N/A   Clear
10:55 PM 67.6 °F 56.3 °F 67% 29.98 in 10.0 mi East 8.1 mph - N/A   Clear
11:15 PM 66.7 °F 56.3 °F 69% 29.98 in 10.0 mi ESE 6.9 mph - N/A   Clear
11:35 PM 67.1 °F 55.9 °F 67% 29.99 in 10.0 mi East 5.8 mph - N/A   Clear
11:55 PM 67.1 °F 56.3 °F 68% 30.02 in 10.0 mi ESE 4.6 mph - N/A   Clear